This is the latest recevied weather packets stored in our database for station/object K5OLV. If no packets are shown the sender has not sent any weather packets the latest 10 day(s).
| Time | Temp. | Humidity | Pressure | Rain* | Wind** | Luminosity | Snow |
|---|---|---|---|---|---|---|---|
| 1787844391 | 25.56° C | 80% | 1015.2 hPa | 0 mm | - | 719 W/m² | - |
| 1787844090 | 25° C | 83% | 1014.9 hPa | 0 mm | - | 667 W/m² | - |
| 1787843785 | 25° C | 85% | 1014.8 hPa | 0 mm | - | 684 W/m² | - |
| 1787843481 | 25° C | 84% | 1014.9 hPa | 0 mm | - | 663 W/m² | - |
| 1787843178 | 25° C | 85% | 1014.9 hPa | 0 mm | - | 641 W/m² | - |
| 1787842878 | 25° C | 84% | 1015 hPa | 0 mm | - | 609 W/m² | - |
| 1787842578 | 24.44° C | 87% | 1014.8 hPa | 0 mm | - | 598 W/m² | - |
| 1787842272 | 25° C | 85% | 1014.6 hPa | 0 mm | - | 631 W/m² | - |
| 1787841972 | 23.89° C | 83% | 1014.7 hPa | 0 mm | - | 590 W/m² | - |
| 1787841668 | 23.33° C | 88% | 1014.7 hPa | 0 mm | - | 505 W/m² | - |
| 1787841367 | 23.89° C | 88% | 1014.5 hPa | 0 mm | - | 504 W/m² | - |
| 1787841062 | 24.44° C | 85% | 1014.5 hPa | 0 mm | - | 572 W/m² | - |
| 1787840757 | 25° C | 82% | 1014.7 hPa | 0 mm | - | 421 W/m² | - |
| 1787840454 | 23.89° C | 83% | 1014.6 hPa | 0 mm | - | 405 W/m² | - |
| 1787840152 | 23.89° C | 87% | 1014.7 hPa | 0 mm | - | 280 W/m² | - |
| 1787839847 | 22.78° C | 89% | 1014.6 hPa | 0 mm | - | 197 W/m² | - |
| 1787839542 | 22.78° C | 92% | 1014.8 hPa | 0 mm | - | 277 W/m² | - |
| 1787839241 | 22.22° C | 93% | 1014.6 hPa | 0 mm | - | 220 W/m² | - |
| 1787838936 | 22.22° C | 93% | 1014.6 hPa | 0 mm | - | 168 W/m² | - |
| 1787838636 | 22.78° C | 92% | 1014.8 hPa | 0 mm | - | 141 W/m² | - |
| 1787838335 | 22.78° C | 93% | 1014.8 hPa | 0 mm | - | 127 W/m² | - |
| 1787838034 | 22.22° C | 93% | 1014.8 hPa | 0 mm | - | 127 W/m² | - |
| 1787837734 | 21.67° C | 93% | 1014.7 hPa | 0 mm | - | 137 W/m² | - |
| 1787837429 | 22.78° C | 94% | 1014.6 hPa | 0 mm | - | 155 W/m² | - |
| 1787837124 | 22.78° C | 94% | 1014.6 hPa | 0 mm | - | 156 W/m² | - |
* Rain latest hour (hover to see other rain measurements)
** Current wind speed in m/s (hover to see current wind gust speed)